[[{"header":{"parameterUnit":"m.s-1","parameterCategory":1,"la1":30.2991,"la2":30.254,"lo1":-89.0895,"lo2":-89.0444,"dy":0.0017,"dx":0.0017,"nx":28,"ny":28,"refTime":"2023-09-25T09:00:00:Z","depth":0,"parameterNumber":2,"parameterNumberName":"U-component_of_WINDS"},"data":[0,0,0,0,0,0,0,0,0,0,0,0,0,0,0,0,0,0,0,0,0,0,0,0,0,0,0,0,0,0,0,0,0,0,0,0,0,0,0,0,0,0,0,0,0,0,0,0,0,0,0,0,0,0,0,0,0,0,-4.702,-4.7018,0,-4.6853,-4.6852,-4.685,-4.6721,-4.672,-4.6719,-4.6718,-4.6544,-4.6541,-4.6537,0,0,0,0,0,0,0,0,0,0,0,0,0,-4.7222,-4.7219,-4.702,-4.7018,-4.7016,-4.6854,-4.6851,-4.6849,-4.6722,-4.672,-4.6719,-4.6717,-4.6546,-4.6541,-4.6537,0,0,0,0,0,0,0,0,0,0,0,0,0,-4.7103,-4.7218,-4.702,-4.6933,-4.6923,-4.6854,-4.6851,-4.6849,-4.6722,-4.672,-4.6718,-4.6717,-4.6547,-4.6542,-4.6537,-4.654,0,0,-4.6521,-4.6518,0,0,0,0,0,0,0,0,-4.711,-4.7096,-4.6948,-4.6939,-4.6928,-4.6806,-4.6859,-4.6745,-4.6722,-4.6798,-4.6718,-4.6716,-4.6633,-4.662,-4.6593,-4.6532,-4.6525,-4.652,-4.6517,-4.6515,-4.6513,0,0,0,0,0,0,0,-4.7118,-4.7102,-4.6954,-4.6946,-4.6934,-4.69,-4.6881,-4.6837,-4.6728,-4.6792,-4.6782,-4.6764,-4.6627,-4.6598,-4.6588,-4.6522,-4.652,-4.6516,-4.6512,-4.651,-4.6451,-4.6452,0,0,0,0,0,0,-4.7141,-4.711,-4.6959,-4.6949,-4.7016,-4.6898,-4.6877,-4.6847,-4.6728,-4.6708,-4.6766,-4.6759,-4.6608,-4.6594,-4.6581,-4.6574,-4.6515,-4.651,-4.6507,-4.6449,-4.6451,-4.6453,0,0,0,0,0,0,-4.7146,-4.7129,-4.6966,-4.7027,-4.7003,-4.6896,-4.6864,-4.6845,-4.6816,-4.6708,-4.6688,-4.6757,-4.6606,-4.6589,-4.655,-4.6566,-4.6507,-4.6503,-4.6447,-4.645,-4.6452,-4.6562,0,0,0,0,0,0,-4.7152,-4.7131,-4.7133,-4.7028,-4.7001,-4.694,-4.6865,-4.6843,-4.6808,-4.6797,-4.6695,-4.6676,-4.6604,-4.6559,-4.6545,-4.6558,-4.6499,-4.6445,-4.6448,-4.6451,-4.6556,-4.6568,-4.6577,0,0,0,0,0,-4.716,-4.7171,-4.7134,-4.7116,-4.7001,-4.6941,-4.6925,-4.6843,-4.681,-4.6809,-4.6739,-4.6679,-4.6568,-4.6556,-4.654,-4.6551,-4.6444,-4.6447,-4.6451,-4.6551,-4.6565,-4.6577,0,0,0,0,0,0,-4.728,-4.7155,-4.7113,-4.709,-4.7027,-4.692,-4.6916,-4.6861,-4.6805,-4.6797,-4.6696,-4.6674,-4.6646,-4.6595,-4.6584,-4.6546,-4.6498,-4.6498,-4.658,-4.6592,-4.6603,-4.6614,-4.6494,0,0,0,0,0,-4.7304,-4.7267,-4.716,-4.715,-4.7121,-4.7025,-4.6996,-4.6937,-4.6867,-4.684,-4.6767,-4.6701,-4.665,-4.6619,-4.6567,-4.6549,-4.6522,-4.6548,-4.6559,-4.6568,-4.6569,-4.6551,-4.656,-4.6464,-4.6464,-4.6464,0,0,-4.7353,-4.728,-4.7263,-4.7173,-4.7117,-4.7079,-4.7003,-4.6967,-4.6937,-4.6834,-4.6792,-4.6737,-4.6656,-4.6627,-4.6611,-4.6583,-4.659,-4.6573,-4.6581,-4.6576,-4.6556,-4.6565,-4.6573,-4.6467,-4.6466,-4.6466,0,0,-4.7421,-4.7365,-4.7349,-4.7294,-4.7211,-4.7146,-4.7143,-4.7043,-4.7002,-4.6959,-4.688,-4.6842,-4.6758,-4.6702,-4.6663,-4.6709,-4.6649,-4.6695,-4.6748,-4.6733,-4.674,-4.6746,-4.6758,-4.6765,-4.6696,-4.6696,-4.6697,0,-4.7492,-4.7433,-4.7347,-4.7315,-4.7275,-4.7182,-4.7162,-4.7114,-4.7017,-4.6991,-4.6963,-4.6853,-4.6792,-4.6747,-4.6758,-4.6731,-4.672,-4.6704,-4.6746,-4.6752,-4.6756,-4.6766,-4.6772,-4.6702,-4.6701,-4.6701,-4.67,0,-4.7522,-4.7482,-4.7479,-4.7388,-4.7349,-4.7324,-4.7232,-4.7202,-4.7147,-4.7085,-4.7041,-4.6964,-4.6893,-4.6878,-4.6825,-4.6824,-4.681,-4.6766,-4.6714,-4.6772,-4.678,-4.6784,-4.671,-4.6708,-4.6706,-4.6705,0,0,-4.7661,-4.7522,-4.7522,-4.7478,-4.7378,-4.7344,-4.7314,-4.7245,-4.7219,-4.7156,-4.7125,-4.7056,-4.7013,-4.6968,-4.6908,-4.6895,-4.693,-4.6851,-4.6847,-4.6865,-4.692,-4.6951,-4.6958,-4.6892,-4.6892,-4.6893,-4.6925,0,-4.7711,-4.7651,-4.7572,-4.7538,-4.7498,-4.7407,-4.738,-4.7315,-4.7256,-4.7211,-4.7145,-4.7096,-4.7046,-4.7018,-4.7001,-4.693,-4.6939,-4.6927,-4.6859,-4.6857,-4.6878,-4.6962,-4.6996,-4.703,-4.6928,-4.6929,-4.6929,0,-4.7761,-4.7702,-4.7664,-4.7565,-4.7545,-4.7522,-4.745,-4.741,-4.7333,-4.7291,-4.7241,-4.7175,-4.7135,-4.7092,-4.7033,-4.7026,-4.6994,-4.6954,-4.6953,-4.6941,-4.6895,-4.6948,-4.704,-4.7044,-4.6934,-4.6934,-4.6933,0,-4.7861,-4.7772,-4.7737,-4.7703,-4.7587,-4.7572,-4.7523,-4.7445,-4.7407,-4.7344,-4.7318,-4.7252,-4.7215,-4.7164,-4.7081,-4.7058,-4.703,-4.6981,-4.699,-4.6992,-4.6986,-4.6987,-4.707,-4.6972,-4.6972,-4.6972,-4.6972,0,-4.7923,-4.7902,-4.778,-4.7758,-4.7731,-4.7639,-4.7615,-4.7557,-4.7488,-4.7451,-4.737,-4.7336,-4.723,-4.7184,-4.7119,-4.7078,-4.7063,-4.7025,-4.7007,-4.703,-4.7034,-4.7005,-4.6999,-4.6973,-4.6973,-4.6972,-4.6972,0,-4.8029,-4.7947,-4.7901,-4.7795,-4.7768,-4.7753,-4.766,-4.7634,-4.7571,-4.7525,-4.7509,-4.7408,-4.7349,-4.7262,-4.7177,-4.7133,-4.7101,-4.7074,-4.7127,-4.7115,-4.7128,-4.7127,-4.7192,-4.7194,-4.71,-4.7101,-4.7102,0,-4.8072,-4.8054,-4.7946,-4.7915,-4.7869,-4.7822,-4.7783,-4.7692,-4.7654,-4.7564,-4.7548,-4.7483,-4.7425,-4.7335,-4.7253,-4.7186,-4.7155,-4.7182,-4.7144,-4.7167,-4.715,-4.7151,-4.7147,-4.7191,-4.7192,-4.7193,-4.7194,0,-4.8156,-4.8115,-4.8063,-4.7996,-4.7951,-4.7894,-4.7832,-4.7812,-4.7707,-4.7668,-4.7607,-4.7563,-4.7475,-4.741,-4.7332,-4.7279,-4.7218,-4.7207,-4.7205,-4.7227,-4.7256,-4.7236,-4.7147,-4.7205,-4.7204,-4.7204,-4.7203,-4.7202,-4.8228,-4.8206,-4.8126,-4.8069,-4.8014,-4.7957,-4.7926,-4.7859,-4.7806,-4.7728,-4.7678,-4.7618,-4.7538,-4.7427,-4.7377,-4.7328,-4.7302,-4.7301,-4.7299,-4.7299,-4.7305,-4.7267,-4.7314,-4.7313,-4.7313,-4.7312,-4.7312,0,-4.8304,-4.8248,-4.8197,-4.8113,-4.8068,-4.8016,-4.7945,-4.7909,-4.7858,-4.779,-4.7735,-4.7663,-4.7599,-4.7512,-4.7441,-4.7418,-4.7387,-4.7402,-4.74,-4.7388,-4.7334,-4.7341,-4.7427,-4.7427,-4.7427,-4.7427,-4.7427,-4.7427,-4.8338,-4.8297,-4.8247,-4.8177,-4.812,-4.8062,-4.8024,-4.7971,-4.7915,-4.7839,-4.7785,-4.7729,-4.7652,-4.7574,-4.7512,-4.7488,-4.7464,-4.7486,-4.7453,-4.7403,-4.7393,-4.7383,-4.7388,-4.7482,-4.7483,-4.751,-4.751,-4.751]},{"header":{"parameterUnit":"m.s-1","parameterCategory":1,"la1":30.2991,"la2":30.254,"lo1":-89.0895,"lo2":-89.0444,"dy":0.0017,"dx":0.0017,"nx":28,"ny":28,"refTime":"2023-09-25T09:00:00:Z","depth":0,"parameterNumber":3,"parameterNumberName":"V-component_of_WINDS"},"data":[0,0,0,0,0,0,0,0,0,0,0,0,0,0,0,0,0,0,0,0,0,0,0,0,0,0,0,0,0,0,0,0,0,0,0,0,0,0,0,0,0,0,0,0,0,0,0,0,0,0,0,0,0,0,0,0,0,0,1.4501,1.4504,0,1.4714,1.4717,1.4719,1.4813,1.4812,1.4812,1.4812,1.5037,1.5043,1.5049,0,0,0,0,0,0,0,0,0,0,0,0,0,1.4185,1.419,1.4501,1.4504,1.4506,1.4714,1.4717,1.472,1.4813,1.4812,1.4812,1.4812,1.5035,1.5042,1.505,0,0,0,0,0,0,0,0,0,0,0,0,0,1.4353,1.4192,1.4501,1.4578,1.4587,1.4713,1.4717,1.4721,1.4813,1.4812,1.4812,1.4811,1.5032,1.5041,1.5051,1.5119,0,0,1.508,1.5084,0,0,0,0,0,0,0,0,1.4343,1.4364,1.4564,1.4573,1.4583,1.4736,1.4688,1.4854,1.4813,1.4727,1.4812,1.4811,1.4938,1.4955,1.4996,1.5129,1.5139,1.508,1.5086,1.509,1.5093,0,0,0,0,0,0,0,1.4331,1.4356,1.4586,1.4566,1.4578,1.4605,1.4628,1.472,1.4833,1.4735,1.4742,1.4766,1.4943,1.4987,1.5002,1.5142,1.508,1.5088,1.5094,1.5098,1.535,1.5351,0,0,0,0,0,0,1.4306,1.4345,1.4579,1.4592,1.4459,1.4611,1.4637,1.4688,1.4832,1.4853,1.4766,1.4769,1.4971,1.4991,1.501,1.5105,1.509,1.5099,1.5104,1.5349,1.5351,1.5352,0,0,0,0,0,0,1.4299,1.4326,1.457,1.4471,1.4504,1.4617,1.4673,1.4692,1.4736,1.4855,1.4877,1.4789,1.4971,1.4997,1.5092,1.5113,1.5103,1.5112,1.5348,1.535,1.5351,1.529,0,0,0,0,0,0,1.4289,1.4323,1.4347,1.4471,1.4509,1.4645,1.4674,1.4697,1.4751,1.4758,1.4883,1.4903,1.4973,1.5078,1.5102,1.5126,1.5119,1.5347,1.5349,1.5351,1.5291,1.5289,1.5288,0,0,0,0,0,1.4278,1.4321,1.4347,1.4375,1.4541,1.4646,1.4668,1.4745,1.4752,1.478,1.4858,1.49,1.5107,1.5087,1.5115,1.5142,1.5346,1.5348,1.5351,1.5291,1.5289,1.5288,0,0,0,0,0,0,1.4197,1.4338,1.4369,1.4453,1.4537,1.4661,1.4698,1.474,1.4825,1.4828,1.4922,1.495,1.5038,1.51,1.5075,1.522,1.5231,1.5239,1.5176,1.5175,1.5174,1.5158,1.5127,0,0,0,0,0,1.4188,1.4259,1.438,1.4443,1.4483,1.4583,1.4632,1.4684,1.4776,1.4812,1.4897,1.4986,1.5073,1.5127,1.5212,1.53,1.5332,1.5334,1.5332,1.533,1.5337,1.5395,1.5398,1.536,1.5359,1.5359,0,0,1.4172,1.4258,1.4297,1.4429,1.45,1.4575,1.4612,1.4688,1.4747,1.4825,1.492,1.4986,1.5093,1.5186,1.5231,1.524,1.5355,1.5333,1.5331,1.5339,1.5398,1.5401,1.5404,1.5361,1.5361,1.5361,0,0,1.4182,1.4252,1.4314,1.4386,1.4493,1.4561,1.4576,1.4696,1.4742,1.4839,1.4901,1.4974,1.5118,1.5194,1.5251,1.5296,1.534,1.5322,1.5315,1.537,1.5374,1.5377,1.5398,1.5404,1.5327,1.5327,1.5327,0,1.4149,1.4261,1.4342,1.4416,1.4475,1.4549,1.4616,1.4682,1.4812,1.4853,1.4861,1.5048,1.5125,1.524,1.5251,1.5294,1.5318,1.5308,1.5366,1.537,1.5375,1.5396,1.5403,1.5324,1.5325,1.5325,1.5325,0,1.4218,1.4296,1.4334,1.4458,1.4522,1.4592,1.4687,1.4742,1.4791,1.4859,1.4961,1.5056,1.5165,1.5196,1.5244,1.5321,1.5324,1.5347,1.536,1.5374,1.5396,1.5405,1.5321,1.5322,1.5322,1.5323,0,0,1.4179,1.4351,1.4364,1.4424,1.455,1.4614,1.4691,1.4797,1.4845,1.4934,1.5004,1.5128,1.5152,1.5218,1.5275,1.5323,1.536,1.5343,1.5347,1.5346,1.5458,1.5441,1.5449,1.539,1.5392,1.5393,1.545,0,1.4209,1.4346,1.4424,1.4531,1.4608,1.4682,1.4751,1.4838,1.4905,1.4984,1.5059,1.5147,1.517,1.5211,1.5262,1.5344,1.5385,1.5341,1.5461,1.5464,1.5434,1.5459,1.544,1.5489,1.5459,1.546,1.5461,0,1.426,1.4348,1.4463,1.4587,1.4622,1.4681,1.4788,1.486,1.4964,1.5011,1.5086,1.5145,1.5234,1.524,1.5369,1.5338,1.5392,1.5441,1.5445,1.5461,1.5465,1.548,1.5506,1.5515,1.5475,1.5474,1.5473,0,1.4225,1.4373,1.4463,1.4511,1.4657,1.4698,1.4761,1.4864,1.4925,1.502,1.5062,1.5165,1.5223,1.5305,1.5393,1.5388,1.5515,1.5526,1.556,1.5558,1.5584,1.5582,1.5623,1.5614,1.5613,1.5613,1.5613,0,1.4251,1.4319,1.445,1.4504,1.4586,1.4677,1.4757,1.4826,1.4919,1.4993,1.5064,1.5133,1.5243,1.5327,1.5396,1.5496,1.552,1.5564,1.5582,1.5559,1.5554,1.5598,1.5598,1.5615,1.5615,1.5614,1.5614,0,1.4225,1.4314,1.4418,1.4549,1.4584,1.4638,1.4753,1.4812,1.4885,1.4978,1.5006,1.5121,1.5224,1.532,1.5457,1.5505,1.5607,1.5628,1.5571,1.5582,1.5612,1.5609,1.5685,1.5702,1.5677,1.5677,1.5677,0,1.4236,1.429,1.4429,1.4483,1.4545,1.463,1.4694,1.4788,1.4852,1.4978,1.5024,1.5133,1.5224,1.5388,1.5486,1.5594,1.5621,1.564,1.5637,1.5615,1.5627,1.5624,1.5633,1.5639,1.5639,1.5639,1.5639,0,1.4247,1.4291,1.4377,1.4483,1.4556,1.4643,1.4733,1.4775,1.4887,1.4957,1.5063,1.5134,1.5277,1.5386,1.5506,1.5577,1.5629,1.5639,1.5654,1.5632,1.5598,1.5622,1.5572,1.5637,1.5637,1.5637,1.5637,1.5637,1.4243,1.4298,1.4405,1.4502,1.458,1.4664,1.4728,1.4811,1.49,1.5023,1.5074,1.5184,1.5295,1.5461,1.5532,1.5623,1.5633,1.5652,1.5658,1.5662,1.5661,1.5582,1.5644,1.5644,1.5645,1.5645,1.5645,0,1.4262,1.4336,1.4424,1.4549,1.4627,1.4668,1.4772,1.4836,1.4931,1.5028,1.5118,1.5245,1.5353,1.5462,1.5578,1.563,1.5658,1.5658,1.5656,1.5673,1.5642,1.562,1.5634,1.5634,1.5634,1.5634,1.5634,1.5634,1.4281,1.4378,1.4435,1.4574,1.4649,1.4756,1.4812,1.4893,1.4972,1.511,1.52,1.527,1.5375,1.55,1.5603,1.5633,1.5675,1.5669,1.5706,1.5675,1.5674,1.5674,1.5654,1.5676,1.5676,1.5731,1.5731,1.5732]}]]